User: anonymous   Login
Location: Newark
(51.0967°N, 24.7917°E)
Time: 10:43:59
(UTC+00:00)
Language:

STARLINK-1311 - Orbit

View from above orbital plane
View from above orbital plane
View from above satellite
View from above satellite

Ground track
Ground track

The orbit data is extracted from the following two-line orbital elements,

1 45363U 20019D   20185.11286678  .00076186  00000-0  49406-3 0  9992
2 45363  52.9949  88.2008 0005732 100.5742 259.5922 15.75338916 17407
Epoch (UTC): 03 July 2020 02:42:31
Eccentricity: 0.0005732
inclination: 52.9949°
perigee height: 340 km
apogee height: 347 km
right ascension of ascending node: 88.2008°
argument of perigee: 100.5742°
revolutions per day: 15.75338916
mean anomaly at epoch: 259.5922°
orbit number at epoch: 1740

The dashed part of the orbit path shows where the satellite is in the earth's shadow,  

DLR